Location: Braden Valley Church
(38.0012°N, 88.6106°W)
Time: 02:35:51
(UTC+00:00)

Cosmos 1633 Rocket - Pass Details

Date: 08 December 2021
Orbit: 608 x 622 km, 82.5° (Epoch: 21 January)

Event Time Altitude Azimuth Distance (km) Brightness Sun altitude
Rises 23:26:04 0° 356° (N) 2,890 6.3 -10.0°
Reaches altitude 10° 23:28:19 10° 360° (N) 1,983 5.4 -10.4°
Maximum altitude 23:32:40 62° 81° (E) 695 3.0 -11.2°
Drops below altitude 10° 23:37:00 10° 163° (SSE) 1,977 5.7 -12.0°
Sets 23:39:14 0° 166° (SSE) 2,880 6.6 -12.4°
